Hamilton, OH

12:22 AM EDT on April 20, 2018 (GMT -0400)
Butler County Regional

Weather History for KHAO - July, 2014

Change the Weather History Date:

Monday, July 28, 2014

  Actual Average (KLUK) Record (KLUK)
Temperature  
Mean Temperature 68 °F -  
Max Temperature 77 °F 86 °F 100 °F (1952)
Min Temperature 57 °F 66 °F 53 °F (1962)
Cooling Degree Days 2    
Growing Degree Days 18 (Base 50)    
Moisture  
Dew Point 58 °F    
Average Humidity 75    
Maximum Humidity 93    
Minimum Humidity 55    
Precipitation  
Precipitation 0.00 in - - ()
Sea Level Pressure  
Sea Level Pressure 29.92 in    
Wind  
Wind Speed 8 mph (WNW)    
Max Wind Speed 15 mph    
Max Gust Speed 21 mph    
Visibility 10 miles    
Events      
Averages and records for this station are not official NWS values.
T = Trace of Precipitation, MM = Missing Value Source: NWS Daily Summary

Daily Weather History Graph

Daily Weather History Graph

Search for Another Location

Airport or City:

Astronomy

Jul. 28, 2014 Rise Set
Actual Time 6:34 AM EDT 8:54 PM EDT
Civil Twilight 6:04 AM EDT 9:24 PM EDT
Nautical Twilight 5:26 AM EDT 10:01 PM EDT
Astronomical Twilight 4:45 AM EDT 10:42 PM EDT
Moon 8:14 AM EDT (7/28) 9:36 PM EDT (7/28)
Length of Visible Light 15h 20m
Length of Day
14h 19m
Waxing Crescent, 3% of the Moon is Illuminated
Jul 28
Waxing Crescent
Aug 3
First Quarter
Aug 10
Full
Aug 17
Last Quarter
Aug 25
New

Hourly Weather History & Observations

Time (EDT) Temp. Dew Point Humidity Pressure Visibility Wind Dir Wind Speed Gust Speed Precip Events Conditions
12:53 AM 70.0 °F 57.9 °F 65% 29.80 in 10.0 mi WNW 10.4 mph - N/A   Clear
1:53 AM 66.0 °F 59.0 °F 78% 29.81 in 10.0 mi West 3.5 mph - N/A   Partly Cloudy
2:53 AM 64.0 °F 59.0 °F 84% 29.81 in 10.0 mi WSW 3.5 mph - N/A   Clear
3:53 AM 63.0 °F 59.0 °F 87% 29.82 in 10.0 mi West 3.5 mph - N/A   Clear
4:53 AM 62.1 °F 60.1 °F 93% 29.83 in 10.0 mi Variable 4.6 mph - N/A   Clear
5:41 AM 64.0 °F 59.0 °F 84% 29.86 in 10.0 mi WNW 10.4 mph - N/A   Mostly Cloudy
5:53 AM 64.9 °F 59.0 °F 81% 29.86 in 10.0 mi WNW 12.7 mph - N/A   Overcast
6:20 AM 64.9 °F 59.0 °F 81% 29.87 in 10.0 mi West 4.6 mph - N/A   Overcast
6:53 AM 64.0 °F 60.1 °F 87% 29.87 in 10.0 mi WSW 3.5 mph - N/A   Overcast
7:53 AM 64.0 °F 60.1 °F 87% 29.89 in 10.0 mi West 3.5 mph - N/A   Overcast
8:53 AM 66.0 °F 60.1 °F 81% 29.90 in 10.0 mi WNW 8.1 mph - N/A   Overcast
9:03 AM 66.0 °F 60.1 °F 81% 29.92 in 10.0 mi NW 9.2 mph - N/A   Overcast
9:45 AM 68.0 °F 60.1 °F 76% 29.93 in 10.0 mi NW 11.5 mph - N/A   Overcast
10:01 AM 68.0 °F 60.1 °F 76% 29.93 in 10.0 mi NW 6.9 mph 18.4 mph N/A   Overcast
10:53 AM 69.1 °F 60.1 °F 73% 29.94 in 10.0 mi NW 11.5 mph - N/A   Overcast
11:53 AM 69.1 °F 60.1 °F 73% 29.95 in 10.0 mi NW 10.4 mph - N/A   Overcast
12:53 PM 71.1 °F 60.1 °F 68% 29.96 in 10.0 mi NW 9.2 mph - N/A   Overcast
3:53 PM 75.9 °F 61.0 °F 60% 29.96 in 10.0 mi WNW 6.9 mph 18.4 mph N/A   Partly Cloudy
4:53 PM 75.0 °F 59.0 °F 57% 29.96 in 10.0 mi NW 12.7 mph 19.6 mph N/A   Scattered Clouds
5:53 PM 73.0 °F 55.9 °F 55% 29.96 in 10.0 mi NW 13.8 mph 20.7 mph N/A   Partly Cloudy
6:53 PM 73.0 °F 55.9 °F 55% 29.97 in 10.0 mi NW 15.0 mph - N/A   Clear
7:53 PM 70.0 °F 55.9 °F 61% 29.98 in 10.0 mi WNW 9.2 mph - N/A   Clear
8:53 PM 66.0 °F 55.9 °F 70% 29.99 in 10.0 mi NW 10.4 mph - N/A   Clear
9:53 PM 63.0 °F 54.0 °F 72% 30.01 in 10.0 mi NW 10.4 mph - N/A   Clear
10:53 PM 60.1 °F 53.1 °F 78% 30.02 in 10.0 mi NNW 6.9 mph - N/A   Clear
11:53 PM 57.0 °F 52.0 °F 83% 30.02 in 10.0 mi NNW 3.5 mph - N/A   Clear